Location: Hylvaty SDH
(49.9612°N, 16.4057°E)
Time: 11:10:50
(UTC+01:00)

A-11 Canister half - Pass Details

Date: 07 October 2020
Orbit: 1526 x 1683 km, 47.3° (Epoch: 28 October)

Event Time Altitude Azimuth Distance (km) Brightness Sun altitude
Rises 00:12:22 0° 267° (W) 4,676 11.6 -45.2°
Enters shadow 00:14:56 - 266° (W) 3,844 11.1 -45.2°
Reaches altitude 10° 00:15:23 10° 266° (W) 3,697 - -45.3°
Maximum altitude 00:24:41 77° 183° (S) 1,584 - -45.5°
Drops below altitude 10° 00:34:12 10° 99° (E) 3,780 - -45.6°
Sets 00:37:20 0° 98° (E) 4,785 - -45.6°
